Weather in Mougins

France     43°35′36″N   6°59′32″E
temp.,
°C
wind,
m/s
gust,
m/s
humid.,
%
clouds,
%
prec.,
mm/h
press.,
hPa
HPBL,
m
18 april, sun
sun1823:00+12w3351100 0.0 1014160
02:00+11wnw225636 0.0 1014121
05:00+11nw2257100 0.0 1014116
08:00+11nnw115584 0.0 1015159
11:00+13ese22527 0.0 1016501
14:00+13sse435555 0.1 1016802
17:00+13sw346192 0.4 1015700
20:00+12ssw226319 0.5 1015288
19 april, mon
mon1923:00+12nw11617 0.0 1016231
02:00+12ene22645 0.0 1015375
05:00+11ne33685 0.0 1015443
08:00+11nne236531 0.0 1015319
11:00+12e226070 0.0 1016489
14:00+13sse336112 0.1 1016731
17:00+13s435912 0.1 1015682
20:00+13ssw44645 0.1 1014384
20 april, tue
tue2023:00+13wsw44634 0.0 1015306
02:00+12wnw11650 0.0 1014159
05:00+12ne33650 0.0 1014267
08:00+12ne44643 0.0 1014328
11:00+13ene44651 0.0 1015742
14:00+14e43635 0.0 1015670
17:00+14se226415 0.0 1014559
20:00+13s1165100 0.0 1014324
21 april, wed
wed2123:00+13ne1166100 0.0 1015204
02:00+13ne2371100 0.0 1016356
05:00+12ne2274100 0.0 1016398
08:00+12nne2279100 0.4 1016170
11:00+13s1274100 1.6 1018206
14:00+13s337188 1.9 1018513
17:00+14sw116217 0.1 1017410
20:00+13s33653 0.1 1018226
22 april, thu
thu2223:00+13wsw337014 0.0 1019235
02:00+12wnw117029 0.0 1019125
05:00+12nw11705 0.0 1019101
08:00+12wnw10705 0.0 1019127
11:00+13sse11651 0.0 1020334
14:00+14sse436627 0.0 1019467
17:00+14ssw557110 0.0 1018602
20:00+14ssw33760 0.0 1017250